User: anonymous   Login
Location: Meriden
(44.0740°N, 93.3870°W)
Time: 17:15:17
(UTC-05:00)
Language:

AO-27 - Orbit

View from above orbital plane
View from above orbital plane
View from above satellite
View from above satellite

Ground track
Ground track

The orbit data is extracted from the following two-line orbital elements,

1 22825U 93061C   15117.48755639  .00000175  00000-0  85313-4 0  9997
2 22825 098.7042 067.5963 0009566 096.2058 041.7040 14.29868829125699
Epoch (UTC): 27 April 2015 11:42:04
Eccentricity: 0.0009566
inclination: 98.7042°
perigee height: 785 km
apogee height: 799 km
right ascension of ascending node: 67.5963°
argument of perigee: 96.2058°
revolutions per day: 14.29868829
mean anomaly at epoch: 41.7040°
orbit number at epoch: 12569

The dashed part of the orbit path shows where the satellite is in the earth's shadow,  

DLR